Вернуться в каталог

COSMOS 44

АктивенВоенныеLEO
NORAD 876·PAYLOAD·🇷🇺 Russia

Запущен Aug 28, 1964 с Baikonur Cosmodrome

Loading…

Ближайшие Пролёты (ближайшие 24 часа)

TLE

СвежийSource: Space-Track

Эпоха: Sep 14, 2026, 12:07 UTC

1 00876U 64053A   26257.50512751  .00000126  00000-0  42173-4 0  9997
2 00876  65.0588  61.7468 0147972 231.8835 126.8852 14.65768301301767

Отслеживайте COSMOS 44 в реальном времени с AllMySat

Download on the App Store